CZ-6A DEB, 55898

Orbit data source: Space-Track

CZ-6A DEB, 55898 is space debris in SSO originally from a launch on Fri, 11 Nov 2022 UTC launched from the Taiyaun Space Center, China (TSC). Debris objects in space refer to the collection of defunct objects orbiting the Earth. Examples of debris include non-operational satellites, rocket bodies, and fragments generated from explosions, collisions, or faulty payload assembly.

Loading next visibility...
Identifier
55898, 2022-151AAW
Orbit
SSO
Country
Flag of CNCN / PRC
Related business
Manufacturer
SAST
Mission
Spacecraft
Bus & Motor
Unknown
Mass
Unknown
Launch date (UTC)
2022-11-11 (4 years ago)
Launch vehicle
Unknown
Launch site
Taiyaun Space Center, China (TSC)
Object type
Payload
Rocket body
Debris
Shape & HBR
Unknown shape, 0.1 m
Radar Cross Section
Small (<0.1 m²)

Expand to show TLE details & history
Last TLE update: 2 days ago

TLE from 2 days ago
0 CZ-6A DEB
1 55898U 22151AAW 26170.96344964  .00000889  00000-0  48270-3 0  9996
2 55898  98.8231 172.2411 0056668 350.4387   9.5703 14.14117202179292
Epoch: 2026-06-19T23:07Z
TLE epoch observation values (Epoch: 2026-06-19T23:07:22.048Z)
Latitude
-0.00001°
Longitude
-82.78565°
Altitude
807.854 km
Speed
7.47 km/s
True Right ascension
11h 28m 57s
True Declination
0° 00' 00"
Sunlit
Object was in daylight at epoch
Visualization orbit readout
Latitude
Unknown
Longitude
Unknown
Altitude
Unknown
Speed
Unknown
Apparent Right ascension
Unknown
Apparent Declination
Unknown
Sunlit
N/A
Visualization observer readout
Local Sidereal Time
21:37:10
Azimuth
Unknown
Elevation
Unknown
Doppler factor
Unknown
Orbital elements
Apogee altitude
883.407 km
Perigee altitude
801.571 km
Semi-major axis
7,220.626 km
Eccentricity
0.00567
Inclination
98.8231°
RAAN
172.2411°
Arg. of periapsis
350.4387°
True anomaly
9.67902°
Mean anomaly
9.5703°
Eccentric anomaly
9.62458°
Mean motion
3.53737 °/min
Orbital period
101.77 mins
BSTAR
0.0004827
Loading maneuver chart data...
Computing Atmospheric mass density...
Loading historical data...
Loading historical data...
Loading historical data...
Loading historical data...
Loading historical data...
Loading historical data...
Loading historical data...

Documentation

Showing up to 5 results
|